Back to catalog

SKYNET 4A

AliveMilitaryGEO
NORAD 20401·PAYLOAD·🇬🇧 United Kingdom

Launched Jan 1, 1990 from Cape Canaveral Space Force Station

Loading…

TLE

FreshSource: Space-Track

Epoch: Sep 14, 2026, 01:45 UTC

1 20401U 90001A   26257.07340340 -.00000245  00000-0  00000-0 0  9992
2 20401  12.4713 349.1313 0013824 308.5834  68.1135  0.99001182 47656

Track SKYNET 4A in real time with AllMySat

Download on the App Store